EN

Hourly Weather Luciny

Today, 2 December, Wednesday

Time Temperature Precipitation Wind Pressure Humidity
00:00 -2°C° 0 mm 3 mps 761 mmHg 77%
01:00 -2°C° 0 mm 3 mps 761 mmHg 79%
02:00 -2°C° 0 mm 3 mps 761 mmHg 79%
03:00 -4°C° 0 mm 3 mps 760 mmHg 79%
04:00 -4°C° 0 mm 3 mps 760 mmHg 80%
05:00 -4°C° 0 mm 3 mps 760 mmHg 81%
06:00 -4°C° 0 mm 3 mps 760 mmHg 81%
07:00 -4°C° 0 mm 3 mps 761 mmHg 84%
08:00 -4°C° 0 mm 3 mps 761 mmHg 81%
09:00 -2°C° 0 mm 3 mps 760 mmHg 78%
10:00 -3°C° 0 mm 4 mps 760 mmHg 75%
11:00 -2°C° 0 mm 4 mps 760 mmHg 72%
12:00 -2°C° 0 mm 4 mps 759 mmHg 69%
13:00 -1°C° 0 mm 4 mps 759 mmHg 68%
14:00 -2°C° 0 mm 4 mps 758 mmHg 71%
15:00 -2°C° 0 mm 3 mps 758 mmHg 74%
16:00 -2°C° 0 mm 3 mps 757 mmHg 76%
17:00 -4°C° 0 mm 4 mps 757 mmHg 77%
18:00 -4°C° 0 mm 4 mps 757 mmHg 77%
19:00 -4°C° 0 mm 4 mps 757 mmHg 78%
20:00 -4°C° 0 mm 4 mps 756 mmHg 78%
21:00 -4°C° 0 mm 4 mps 756 mmHg 78%
22:00 -4°C° 0 mm 4 mps 755 mmHg 78%
23:00 -5°C° 0 mm 4 mps 755 mmHg 77%

Tomorrow, 3 December, Thursday

Time Temperature Precipitation Wind Pressure Humidity
00:00 -5°C° 0 mm 3 mps 755 mmHg 77%
01:00 -5°C° 0 mm 3 mps 754 mmHg 76%
02:00 -5°C° 0 mm 3 mps 754 mmHg 74%
03:00 -4°C° 0 mm 3 mps 753 mmHg 71%
04:00 -4°C° 0 mm 4 mps 752 mmHg 69%
05:00 -4°C° 0 mm 4 mps 752 mmHg 66%
06:00 -3°C° 0 mm 4 mps 752 mmHg 63%
07:00 -3°C° 0 mm 4 mps 751 mmHg 60%
08:00 -3°C° 0.5 mm 4 mps 751 mmHg 71%
09:00 -3°C° 0.5 mm 4 mps 751 mmHg 83%
10:00 -3°C° 0.5 mm 4 mps 751 mmHg 94%
11:00 -3°C° 0.8 mm 4 mps 750 mmHg 94%
12:00 -3°C° 0.8 mm 4 mps 750 mmHg 94%
13:00 -2°C° 0.8 mm 5 mps 749 mmHg 94%
14:00 -2°C° 0 mm 4 mps 749 mmHg 93%
15:00 -3°C° 0 mm 4 mps 748 mmHg 91%
16:00 -3°C° 0 mm 4 mps 748 mmHg 90%
17:00 -3°C° 0 mm 4 mps 748 mmHg 89%
18:00 -2°C° 0 mm 3 mps 747 mmHg 88%
19:00 -2°C° 0 mm 3 mps 747 mmHg 88%
20:00 -2°C° 0 mm 3 mps 747 mmHg 88%
21:00 -2°C° 0 mm 3 mps 747 mmHg 87%
22:00 -2°C° 0 mm 3 mps 746 mmHg 87%
23:00 -2°C° 0 mm 3 mps 746 mmHg 88%

Day after tomorrow, 4 December, Friday

Time Temperature Precipitation Wind Pressure Humidity
00:00 -2°C° 0 mm 3 mps 746 mmHg 90%
01:00 -1°C° 0 mm 3 mps 745 mmHg 91%
02:00 -2°C° 0 mm 4 mps 745 mmHg 89%
03:00 -1°C° 0 mm 4 mps 744 mmHg 86%
04:00 0°C° 0 mm 5 mps 743 mmHg 84%
05:00 0°C° 0.1 mm 5 mps 743 mmHg 86%
06:00 0°C° 0.1 mm 5 mps 743 mmHg 87%
07:00 0°C° 0.1 mm 5 mps 743 mmHg 89%
08:00 +1°C° 0 mm 5 mps 742 mmHg 89%
09:00 +1°C° 0 mm 4 mps 742 mmHg 89%
10:00 +3°C° 0 mm 4 mps 742 mmHg 89%
11:00 +3°C° 0 mm 4 mps 742 mmHg 89%
12:00 +3°C° 0 mm 4 mps 742 mmHg 88%
13:00 +4°C° 0 mm 4 mps 741 mmHg 88%
14:00 +4°C° 0 mm 4 mps 741 mmHg 87%
15:00 +2°C° 0 mm 5 mps 741 mmHg 86%
16:00 +2°C° 0 mm 5 mps 741 mmHg 85%
17:00 +2°C° 0 mm 5 mps 741 mmHg 86%
18:00 +2°C° 0 mm 5 mps 741 mmHg 86%
19:00 +2°C° 0 mm 6 mps 741 mmHg 86%
20:00 +2°C° 0 mm 5 mps 741 mmHg 86%
21:00 +2°C° 0 mm 5 mps 742 mmHg 86%
22:00 +2°C° 0 mm 5 mps 742 mmHg 85%
23:00 +2°C° 0 mm 5 mps 742 mmHg 85%

5 December, Saturday

Time Temperature Precipitation Wind Pressure Humidity
00:00 +3°C° 0 mm 5 mps 742 mmHg 85%
01:00 +3°C° 0 mm 5 mps 743 mmHg 85%
02:00 +3°C° 0 mm 5 mps 743 mmHg 84%
03:00 +3°C° 0 mm 6 mps 743 mmHg 83%
04:00 +3°C° 0 mm 6 mps 743 mmHg 81%
05:00 +3°C° 0 mm 6 mps 743 mmHg 81%
06:00 +4°C° 0 mm 6 mps 743 mmHg 80%
07:00 +4°C° 0 mm 7 mps 743 mmHg 79%
08:00 +4°C° 0 mm 7 mps 743 mmHg 76%
09:00 +5°C° 0 mm 8 mps 743 mmHg 73%
10:00 +6°C° 0 mm 8 mps 744 mmHg 70%
11:00 +7°C° 0 mm 8 mps 744 mmHg 69%
12:00 +8°C° 0 mm 7 mps 744 mmHg 68%
13:00 +9°C° 0 mm 7 mps 744 mmHg 68%
14:00 +8°C° 0 mm 6 mps 744 mmHg 70%
15:00 +8°C° 0 mm 6 mps 744 mmHg 72%
16:00 +7°C° 0 mm 6 mps 744 mmHg 74%
17:00 +7°C° 0 mm 6 mps 744 mmHg 75%
18:00 +6°C° 0 mm 7 mps 744 mmHg 75%
19:00 +6°C° 0 mm 7 mps 745 mmHg 75%
20:00 +6°C° 0 mm 7 mps 745 mmHg 74%
21:00 +6°C° 0 mm 7 mps 745 mmHg 74%
22:00 +6°C° 0 mm 7 mps 745 mmHg 73%
23:00 +6°C° 0 mm 8 mps 745 mmHg 73%

6 December, Sunday

Time Temperature Precipitation Wind Pressure Humidity
00:00 +6°C° 0 mm 8 mps 745 mmHg 72%
01:00 +6°C° 0 mm 8 mps 745 mmHg 72%
02:00 +7°C° 0 mm 8 mps 745 mmHg 72%
03:00 +7°C° 0 mm 8 mps 745 mmHg 72%
04:00 +7°C° 0 mm 8 mps 745 mmHg 72%
05:00 +7°C° 0 mm 8 mps 745 mmHg 72%
06:00 +7°C° 0 mm 8 mps 745 mmHg 73%
07:00 +7°C° 0 mm 8 mps 745 mmHg 74%
08:00 +7°C° 0 mm 8 mps 745 mmHg 72%
09:00 +7°C° 0 mm 8 mps 746 mmHg 71%
10:00 +9°C° 0 mm 7 mps 746 mmHg 69%
11:00 +9°C° 0 mm 7 mps 746 mmHg 67%
12:00 +10°C° 0 mm 7 mps 746 mmHg 66%
13:00 +10°C° 0 mm 8 mps 746 mmHg 64%
14:00 +10°C° 0 mm 8 mps 745 mmHg 65%
15:00 +9°C° 0 mm 8 mps 745 mmHg 67%
16:00 +7°C° 0 mm 8 mps 745 mmHg 69%
17:00 +7°C° 0 mm 8 mps 745 mmHg 71%
18:00 +6°C° 0 mm 8 mps 745 mmHg 74%
19:00 +6°C° 0 mm 8 mps 745 mmHg 76%
20:00 +5°C° 0 mm 8 mps 745 mmHg 76%
21:00 +5°C° 0 mm 8 mps 745 mmHg 77%
22:00 +5°C° 0 mm 8 mps 745 mmHg 77%
23:00 +5°C° 0.2 mm 8 mps 745 mmHg 79%

7 December, Monday

Time Temperature Precipitation Wind Pressure Humidity
00:00 +5°C° 0.2 mm 8 mps 745 mmHg 81%
01:00 +5°C° 0.2 mm 8 mps 745 mmHg 83%
02:00 +5°C° 0.2 mm 8 mps 745 mmHg 81%
03:00 +5°C° 0.2 mm 7 mps 744 mmHg 80%
04:00 +5°C° 0.2 mm 7 mps 744 mmHg 78%
05:00 +5°C° 0.1 mm 7 mps 744 mmHg 78%
06:00 +5°C° 0.1 mm 7 mps 744 mmHg 78%
07:00 +6°C° 0.1 mm 7 mps 744 mmHg 77%
08:00 +6°C° 0 mm 7 mps 745 mmHg 78%
09:00 +6°C° 0 mm 7 mps 745 mmHg 79%
10:00 +6°C° 0 mm 7 mps 745 mmHg 79%
11:00 +8°C° 0 mm 6 mps 746 mmHg 75%
12:00 +8°C° 0 mm 6 mps 746 mmHg 71%
13:00 +9°C° 0 mm 5 mps 746 mmHg 66%
14:00 +8°C° 0 mm 5 mps 747 mmHg 70%
15:00 +7°C° 0 mm 4 mps 748 mmHg 74%
16:00 +7°C° 0 mm 3 mps 748 mmHg 77%
17:00 +7°C° 0 mm 3 mps 749 mmHg 81%
18:00 +6°C° 0 mm 2 mps 749 mmHg 85%
19:00 +6°C° 0 mm 2 mps 750 mmHg 88%
20:00 +6°C° 0 mm 1 mps 750 mmHg 89%
21:00 +6°C° 0 mm 1 mps 751 mmHg 91%
22:00 +5°C° 0 mm 0 mps 751 mmHg 92%
23:00 +4°C° 0 mm 0 mps 751 mmHg 92%
Show more